Погода в Лиффорде

Ирландия     54°49′58″N   7°28′54″W
темп.,
°C
ветер,
м/с
пор.,
м/с
влажн.,
%
обл.,
%
осадки,
мм/ч
давл.,
гПа
погр.,
м
11 апреля, вс
вс1101:00−2зсз11845 0.0 102212
04:00−2сз11915 0.0 102213
07:00−2зсз11905 0.0 102312
10:00+4ссз3564100 0.1 1023864
13:00+6ссз475110 0.6 10241751
16:00+6сз565788 0.2 10231489
19:00+5сз3478100 0.6 1024623
22:00+2зсз1191100 0.1 102513
12 апреля, пн
пн1201:00+2з1299100 0.5 1026307
04:00+2ююз11100100 1.0 1027157
07:00+2ю11100100 1.1 102776
10:00+4ю1297100 0.1 1028247
13:00+4ю2398100 0.6 1029263
16:00+7зюз138899 0.7 1029235
19:00+7сз258690 1.9 1029262
22:00+4юз119362 0.1 103112
13 апреля, вт
вт1301:00+3юз229599 0.1 103116
04:00+1ююз229689 0.0 103215
07:00+1ююз229715 0.0 103218
10:00+7зюз248626 0.0 1033542
13:00+11з335880 0.3 10321570
16:00+10з346255 0.4 10321124
19:00+8сз367711 0.8 1032216
22:00+3ссв11915 0.0 103410
14 апреля, ср
ср1401:00+2ссз00933 0.0 103410
04:00+1юв00940 0.0 103410
07:00+1в11920 0.0 103410
10:00+7юв12775 0.0 1034338
13:00+11юв225610 0.0 10341394
16:00+12в225194 0.1 10331607
19:00+10вюв357973 0.3 1033174
22:00+6юв229375 0.1 103431
15 апреля, чт
чт1501:00+5юв119392 0.1 103521
04:00+5ююв119388 0.0 103430
07:00+3юв119273 0.0 103538
10:00+8юв34715 0.0 1035465
13:00+11юв45566 0.0 10341428
16:00+11юв556399 0.1 10331126
19:00+9юв47715 0.1 1032692
22:00+4ююв310857 0.0 1034267